Regional Weather Roundup
Issued by NWS

Home | Current Version | Previous Version | Graphics & Text | Print | Product List | Glossary On
Versions: 1 2 3 4 5 6 7 8 9 10 11 12 13 14 15 16 17 18 19 20 21 22 23 24 25 26 27 28 29 30 31 32 33 34 35 36 37 38 39 40 41 42 43 44 45 46 47 48 49 50
912
ASUS43 KOAX 290010
RWRNE

WEATHER ROUNDUP FOR NEBRASKA
NATIONAL WEATHER SERVICE OMAHA NE
700 PM CDT TUE MAR 28 2017

NOTES: SATELLITE DATA IS BEING USED TO AUGMENT CLOUD COVER ABOVE
       12000 FEET.
       "FAIR" INDICATES FEW OR NO CLOUDS BELOW 12,000 FEET WITH NO
       SIGNIFICANT WEATHER AND/OR OBSTRUCTIONS TO VISIBILITY.

  * THESE STATIONS DO NOT REPORT WEATHER SUCH AS RAIN...SNOW OR FOG.

NEZ001>004-019>022-054>056-290100-
NEBRASKA PANHANDLE

CITY           SKY/WX    TMP DP  RH WIND       PRES   REMARKS
SCOTTSBLUFF    CLOUDY    44  40  85 E10       30.02R
6HR MIN TEMP:  44; 6HR MAX TEMP:  47; 6HR PCP:  0.33;

ALLIANCE       LGT RAIN  41  40  96 E14       30.03S FOG
6HR MIN TEMP:  41; 6HR MAX TEMP:  44; 6HR PCP:  0.33;

CHADRON        LGT RAIN  45  41  86 SE12      30.07R
6HR MIN TEMP:  44; 6HR MAX TEMP:  46; 6HR PCP:  0.20;

KIMBALL        RAIN      42  42 100 E12       29.98R
SIDNEY         CLOUDY    41  39  93 E16G26    29.98R
6HR MIN TEMP:  41; 6HR MAX TEMP:  44; 6HR PCP: TRACE;

$$

NEZ057>060-069>072-079>082-290100-
SOUTHWEST NEBRASKA

CITY           SKY/WX    TMP DP  RH WIND       PRES   REMARKS
NORTH PLATTE   LGT RAIN  46  43  89 E17       30.05R FOG
6HR MIN TEMP:  46; 6HR MAX TEMP:  47; 6HR PCP:  0.26;

IMPERIAL       LGT RAIN  43  41  93 E15       29.97F
6HR MIN TEMP:  43; 6HR MAX TEMP:  46; 6HR PCP:  0.32;

LEXINGTON      LGT RAIN  46  42  85 NE10      30.04R
MCCOOK         RAIN      46  46 100 NE5       30.00F FOG
6HR MIN TEMP:  46; 6HR MAX TEMP:  47; 6HR PCP:  0.42;

OGALLALA       LGT RAIN  45  44  95 E12       30.00F
$$

NEZ005>010-023>029-035>040-094-290100-
NORTH CENTRAL NEBRASKA

CITY           SKY/WX    TMP DP  RH WIND       PRES   REMARKS
VALENTINE      LGT RAIN  43  40  89 NE6       30.12R FOG
6HR MIN TEMP:  43; 6HR MAX TEMP:  49; 6HR PCP:  0.10;

AINSWORTH      DRIZZLE   46  44  93 NE9       30.10R
BROKEN BOW     LGT RAIN  47  40  76 E9        30.07R
6HR MIN TEMP:  47; 6HR MAX TEMP:  51; 6HR PCP: TRACE;

O`NEILL        CLOUDY    53  40  62 NE6       30.09R
ORD            CLOUDY    49  39  68 SE6       30.07R
6HR MIN TEMP:  49; 6HR MAX TEMP:  51;

THEDFORD       RAIN      44  42  93 SE6       30.10R
$$

NEZ041-046>049-061>064-073>077-083>087-290100-
SOUTH CENTRAL NEBRASKA

CITY           SKY/WX    TMP DP  RH WIND       PRES   REMARKS
GRAND ISLAND   CLOUDY    46  42  86 NE10      30.06F
6HR MIN TEMP:  46; 6HR MAX TEMP:  52;

AURORA         CLOUDY    46  42  85 E13       30.06F
HASTINGS       CLOUDY    46  40  79 E15       30.05F
6HR MIN TEMP:  46; 6HR MAX TEMP:  53;

HEBRON         CLOUDY    49  40  71 E13G18    30.02F
HOLDREGE       LGT RAIN  46  41  85 NE15      30.03R
KEARNEY *      CLOUDY    46  37  71 NE13      30.05S
YORK           CLOUDY    46  41  81 NE12      30.07F
$$

NEZ011>018-030>034-042>045-290100-
NORTHEAST NEBRASKA

CITY           SKY/WX    TMP DP  RH WIND       PRES   REMARKS
NORFOLK        CLOUDY    53  41  63 SE12      30.08R
6HR MIN TEMP:  51; 6HR MAX TEMP:  56;

ALBION         CLOUDY    50  42  72 SE8       30.09R
BLAIR          CLOUDY    49  43  78 E9        30.10R
FREMONT        CLOUDY    49  42  74 E6        30.11R
TEKAMAH        CLOUDY    51  43  74 E9        30.11R
6HR MIN TEMP:  50; 6HR MAX TEMP:  55;

WAYNE          CLOUDY    56  42  60 SE9       30.08R
$$

NEZ050>053-065>068-078-088>093-290100-
SOUTHEAST NEBRASKA

CITY           SKY/WX    TMP DP  RH WIND       PRES   REMARKS
LINCOLN        CLOUDY    50  41  71 E12       30.10R
6HR MIN TEMP:  49; 6HR MAX TEMP:  52;

OMAHA EPPLEY   CLOUDY    51  41  68 E9        30.10R
6HR MIN TEMP:  49; 6HR MAX TEMP:  51;

BEATRICE       CLOUDY    51  43  75 NE8       30.05F
FALLS CITY     CLOUDY    52  47  83 E6        30.06R
6HR MIN TEMP:  51; 6HR MAX TEMP:  54;

NEBRASKA CITY  CLOUDY    50  40  69 NE8       30.08R
PLATTSMOUTH    CLOUDY    49  40  70 NE6       30.09S
$$

NEZ044-045-051>053-067-290100-
OMAHA AREA

CITY           SKY/WX    TMP DP  RH WIND       PRES   REMARKS
OMAHA EPPLEY   CLOUDY    51  41  68 E9        30.10R
6HR MIN TEMP:  49; 6HR MAX TEMP:  51;

BLAIR          CLOUDY    49  43  78 E9        30.10R
FREMONT        CLOUDY    49  42  74 E6        30.11R
MILLARD        CLOUDY    51  44  75 E5        30.11R
OFFUTT AFB     CLOUDY    50  42  74 NE6       30.10R
PLATTSMOUTH    CLOUDY    49  40  70 NE6       30.09S
WAHOO          CLOUDY    48  42  80 E6        30.10R
$$




USA.gov is the U.S. government's official web portal to all federal, state and local government web resources and services.